Terminal Aerodrome Forecast
Issued by NWS

Home | Current Version | Previous Version | Text Only | Print | Product List | Glossary On
Versions: 1 2 3 4 5 6 7 8 9 10 11 12 13 14 15 16 17 18 19 20 21
000
FTUS45 KBOU 311613 AAA
TAFAPA
TAF AMD
KAPA 311613Z 3116/0112 VRB05KT P6SM FEW140 BKN220
     FM311700 17012KT P6SM SCT220
     FM010200 19010KT P6SM FEW140 SCT220
     FM010900 20010KT P6SM SCT080 BKN180=

USA.gov is the U.S. government's official web portal to all federal, state and local government web resources and services.